495  
SXUS52 KJAX 280013  
OSOJAX  
OTHER SURFACE OBSERVATIONS  
NATIONAL WEATHER SERVICE JACKSONVILLE FL  
800 PM EDT TUE JUN 27 2017  
 
FLZ020>025-030>033-035>038-040-280100-   
..FLORIDA
 
 
 
CITY SKY/WX TMP DP RH WIND PRES REMARKS  
CECIL FIELD RAIN 75 75 100 E9 30.03R  
HERLONG FIELD NOT AVBL  
FERNANDINA BCH NOT AVBL  
LAKE CITY RAIN 73 73 100 NE8 30.02R  
JUNIPER SPGS NOT AVBL  
BUNNELL NOT AVBL  
KEYSTONE HGTS CLOUDY 72 72 100 E7 30.03R VSB 1  

 
 
GAZ132>136-149>154-162>166-280100-   
..GEORGIA
 
 
 
CITY SKY/WX TMP DP RH WIND PRES REMARKS  
JESUP FAIR 73 66 78 CALM 30.03S  
HOMERVILLE MOCLDY 73 73 100 E6 30.03S  
SWAINSBORO FAIR 79 72 78 CALM 30.02S  
CORDELE NOT AVBL  
EASTMAN FAIR 81 59 47 CALM 30.04S  

 
 
PLEASE NOTE: THESE OBSERVATIONS ARE NOT QUALITY CONTROLLED AND MAY  
NOT BE AVAILABLE AT ALL TIMES.  

 
 
 
CLICK HERE TO GO TO PREVIOUS BULLETINS.

The Nexlab FL Page
The Nexlab GA Page Main Text Page